Find Starlink 31305

NORAD ID: 59232 Int'l Des: 2024-049 Owner: SPXS Country: US Constellation: starlink operational
LEOCIRCULAR

Current View

Loading 3D Globe...

About Starlink 31305

Starlink 31305 (NORAD 59232) is a starlink constellation satellite (v2 mini) launched Mar 16, 2024 by SPXS of US. It operates in LEO, CIRCULAR orbit with a mass of 730.00 kg.

Upcoming Passes

Passes for default location (London). Set your location on the main map for personalized predictions.

Altitude History

Loading altitude history...

Two-Line Element Set

1 59232U 24049B 26237.15921727 .00000635 00000-0 32606-4 0 9999
2 59232 43.0038 271.8911 0001349 269.0831 90.9866 15.27576460138155
Epoch: Aug 25, 2026 • Age: 32 hours

Current Status

Altitude 484.4 km
Apogee / Perigee N/A
Velocity 7.62 km/s
Sub-Earth Point -9.18°S, 61.27°W
Launch Date Mar 16, 2024
Age 2.4 years
Type internet

Technical Details

Classification Payload
Mass 730.00 kg
Dry Mass 700.00 kg
Total Mass 730.00 kg
Length 0.30 m
Diameter 4.10 m
Span 29.00 m
Shape Box + pan
Manufacturer SPXS
Bus Type Starlink V2M
Phase Status In Orbit
Owner/State SPXS/US

Most Searched